[[{"header":{"parameterUnit":"m.s-1","parameterCategory":1,"la1":30.2991,"la2":30.254,"lo1":-89.0895,"lo2":-89.0444,"dy":0.0017,"dx":0.0017,"nx":28,"ny":28,"refTime":"2024-03-27T09:00:00:Z","depth":0,"parameterNumber":2,"parameterNumberName":"U-component_of_WINDS"},"data":[0,0,0,0,0,0,0,0,0,0,0,0,0,0,0,0,0,0,0,0,0,0,0,0,0,0,0,0,0,0,0,0,0,0,0,0,0,0,0,0,0,0,0,0,0,0,0,0,0,0,0,0,0,0,0,0,0,0,1.0631,1.0631,0,1.0667,1.0668,1.0668,1.0684,1.0684,1.0684,1.0684,1.0721,1.0722,1.0723,0,0,0,0,0,0,0,0,0,0,0,0,0,1.0575,1.0576,1.0631,1.0631,1.0632,1.0667,1.0668,1.0668,1.0684,1.0684,1.0684,1.0684,1.072,1.0721,1.0723,0,0,0,0,0,0,0,0,0,0,0,0,0,1.0604,1.0576,1.0631,1.0644,1.0645,1.0667,1.0668,1.0668,1.0684,1.0684,1.0684,1.0684,1.072,1.0721,1.0723,1.0734,0,0,1.0728,1.0728,0,0,0,0,0,0,0,0,1.0602,1.0606,1.0641,1.0643,1.0645,1.0671,1.0661,1.069,1.0684,1.0669,1.0684,1.0684,1.0704,1.0707,1.0714,1.0736,1.0737,1.0728,1.0729,1.0729,1.073,0,0,0,0,0,0,0,1.06,1.0604,1.0645,1.0642,1.0644,1.0648,1.0652,1.0667,1.0687,1.0671,1.0672,1.0676,1.0705,1.0712,1.0715,1.0738,1.0728,1.0729,1.073,1.0731,1.0771,1.0771,0,0,0,0,0,0,1.0596,1.0603,1.0644,1.0646,1.0623,1.0649,1.0653,1.0663,1.0687,1.069,1.0676,1.0677,1.071,1.0713,1.0716,1.0731,1.0729,1.0731,1.0732,1.0771,1.0771,1.0771,0,0,0,0,0,0,1.0595,1.0599,1.0642,1.0625,1.063,1.065,1.066,1.0663,1.0671,1.0691,1.0694,1.068,1.071,1.0714,1.073,1.0733,1.0731,1.0733,1.0771,1.0771,1.0771,1.0761,0,0,0,0,0,0,1.0593,1.0599,1.0603,1.0625,1.0631,1.0655,1.066,1.0664,1.0673,1.0675,1.0695,1.0699,1.071,1.0727,1.0731,1.0735,1.0734,1.0771,1.0771,1.0771,1.0761,1.0761,1.076,0,0,0,0,0,1.0591,1.0598,1.0603,1.0608,1.0637,1.0655,1.0659,1.0672,1.0674,1.0678,1.0691,1.0698,1.0732,1.0729,1.0733,1.0737,1.0771,1.0771,1.0771,1.0761,1.0761,1.076,0,0,0,0,0,0,1.0576,1.0601,1.0607,1.0622,1.0636,1.0658,1.0664,1.0671,1.0685,1.0686,1.0702,1.0706,1.072,1.0731,1.0727,1.075,1.0752,1.0753,1.0743,1.0742,1.0742,1.0739,1.0735,0,0,0,0,0,1.0575,1.0588,1.0609,1.062,1.0627,1.0644,1.0652,1.0662,1.0677,1.0683,1.0697,1.0712,1.0726,1.0735,1.0749,1.0763,1.0768,1.0768,1.0768,1.0767,1.0768,1.0777,1.0777,1.0773,1.0773,1.0773,0,0,1.0572,1.0587,1.0594,1.0617,1.063,1.0642,1.0649,1.0662,1.0672,1.0685,1.0701,1.0712,1.0729,1.0744,1.0751,1.0753,1.0771,1.0768,1.0767,1.0768,1.0777,1.0778,1.0778,1.0773,1.0773,1.0773,0,0,1.0573,1.0586,1.0597,1.0609,1.0628,1.0639,1.0642,1.0663,1.0671,1.0687,1.0697,1.0709,1.0733,1.0745,1.0754,1.0761,1.0768,1.0765,1.0763,1.0772,1.0772,1.0773,1.0775,1.0776,1.0766,1.0766,1.0766,0,1.0567,1.0587,1.0601,1.0614,1.0624,1.0637,1.0648,1.066,1.0682,1.0688,1.069,1.0721,1.0733,1.0752,1.0753,1.076,1.0764,1.0763,1.0771,1.0772,1.0772,1.0775,1.0776,1.0765,1.0766,1.0766,1.0766,0,1.0578,1.0592,1.0598,1.062,1.0631,1.0642,1.0659,1.0668,1.0677,1.0688,1.0705,1.0721,1.0738,1.0744,1.0752,1.0763,1.0764,1.0768,1.077,1.0772,1.0775,1.0776,1.0765,1.0765,1.0765,1.0765,0,0,1.0571,1.0601,1.0603,1.0613,1.0635,1.0646,1.0658,1.0676,1.0684,1.0699,1.071,1.073,1.0735,1.0745,1.0755,1.0763,1.0767,1.0766,1.0767,1.0766,1.0782,1.0778,1.0779,1.0773,1.0773,1.0773,1.078,0,1.0575,1.0598,1.0612,1.063,1.0642,1.0656,1.0667,1.0682,1.0693,1.0706,1.0718,1.0733,1.0737,1.0744,1.0752,1.0765,1.0771,1.0765,1.0783,1.0784,1.0778,1.0781,1.0777,1.0783,1.0781,1.0782,1.0782,0,1.0582,1.0598,1.0617,1.0638,1.0644,1.0653,1.0671,1.0683,1.07,1.0708,1.0721,1.0731,1.0745,1.0747,1.0767,1.0762,1.0771,1.0779,1.0779,1.0781,1.0782,1.0782,1.0785,1.0786,1.0784,1.0783,1.0783,0,1.0575,1.06,1.0615,1.0623,1.0648,1.0655,1.0666,1.0683,1.0693,1.0709,1.0715,1.0732,1.0741,1.0754,1.0769,1.0769,1.0788,1.079,1.0795,1.0794,1.0798,1.0797,1.0801,1.0803,1.0803,1.0803,1.0803,0,1.0578,1.0589,1.0612,1.0621,1.0634,1.065,1.0663,1.0675,1.069,1.0702,1.0714,1.0725,1.0744,1.0757,1.0769,1.0784,1.0788,1.0795,1.0798,1.0793,1.0792,1.0799,1.0799,1.0804,1.0804,1.0804,1.0804,0,1.0572,1.0587,1.0604,1.0627,1.0633,1.0642,1.0661,1.067,1.0683,1.0698,1.0702,1.0722,1.0738,1.0754,1.0776,1.0784,1.0799,1.0802,1.0793,1.0794,1.0798,1.0797,1.0806,1.0808,1.0808,1.0808,1.0808,0,1.0572,1.0581,1.0605,1.0614,1.0624,1.0638,1.0649,1.0665,1.0676,1.0697,1.0704,1.0721,1.0736,1.0761,1.0777,1.0794,1.0799,1.0801,1.0801,1.0797,1.0799,1.0798,1.0799,1.08,1.08,1.08,1.08,0,1.0572,1.058,1.0594,1.0611,1.0624,1.0638,1.0653,1.066,1.0679,1.069,1.0707,1.0719,1.0741,1.0758,1.0778,1.0789,1.0798,1.08,1.0802,1.0797,1.0791,1.0795,1.0791,1.0799,1.0799,1.0799,1.0799,1.0799,1.0569,1.0578,1.0596,1.0612,1.0625,1.0639,1.0649,1.0663,1.0677,1.0697,1.0706,1.0723,1.0741,1.0768,1.0779,1.0793,1.0795,1.0798,1.0799,1.0799,1.0798,1.0789,1.0797,1.0797,1.0797,1.0797,1.0797,0,1.057,1.0582,1.0597,1.0617,1.063,1.0637,1.0655,1.0665,1.068,1.0696,1.071,1.073,1.0747,1.0765,1.0783,1.0791,1.0795,1.0795,1.0794,1.0797,1.0795,1.0792,1.0791,1.0791,1.0791,1.0791,1.0791,1.0791,1.0571,1.0587,1.0596,1.0618,1.0631,1.0648,1.0657,1.067,1.0683,1.0705,1.0719,1.073,1.0747,1.0767,1.0783,1.0788,1.0794,1.0793,1.0799,1.0796,1.0797,1.0797,1.0794,1.0794,1.0794,1.0799,1.0799,1.0799]},{"header":{"parameterUnit":"m.s-1","parameterCategory":1,"la1":30.2991,"la2":30.254,"lo1":-89.0895,"lo2":-89.0444,"dy":0.0017,"dx":0.0017,"nx":28,"ny":28,"refTime":"2024-03-27T09:00:00:Z","depth":0,"parameterNumber":3,"parameterNumberName":"V-component_of_WINDS"},"data":[0,0,0,0,0,0,0,0,0,0,0,0,0,0,0,0,0,0,0,0,0,0,0,0,0,0,0,0,0,0,0,0,0,0,0,0,0,0,0,0,0,0,0,0,0,0,0,0,0,0,0,0,0,0,0,0,0,0,-6.6319,-6.6321,0,-6.652,-6.6522,-6.6524,-6.6476,-6.6472,-6.6468,-6.6464,-6.6665,-6.6674,-6.6683,0,0,0,0,0,0,0,0,0,0,0,0,0,-6.5889,-6.5898,-6.6319,-6.6321,-6.6324,-6.6519,-6.6522,-6.6525,-6.6477,-6.6472,-6.6467,-6.6463,-6.6662,-6.6673,-6.6684,0,0,0,0,0,0,0,0,0,0,0,0,0,-6.6082,-6.59,-6.6318,-6.6323,-6.6326,-6.6519,-6.6522,-6.6526,-6.6478,-6.6472,-6.6466,-6.646,-6.6659,-6.6672,-6.6685,-6.6884,0,0,-6.6726,-6.6732,0,0,0,0,0,0,0,0,-6.6071,-6.6097,-6.632,-6.6323,-6.6326,-6.6467,-6.6445,-6.6646,-6.6479,-6.642,-6.6464,-6.6458,-6.6604,-6.6621,-6.6672,-6.6894,-6.6902,-6.6728,-6.6736,-6.6741,-6.6745,0,0,0,0,0,0,0,-6.6058,-6.6088,-6.6398,-6.6323,-6.6327,-6.6314,-6.6335,-6.6482,-6.6542,-6.6424,-6.6421,-6.6446,-6.6604,-6.6659,-6.6676,-6.6905,-6.6727,-6.6739,-6.6747,-6.6753,-6.7303,-6.7309,0,0,0,0,0,0,-6.6042,-6.6078,-6.6392,-6.6404,-6.6182,-6.6327,-6.635,-6.6428,-6.654,-6.6552,-6.6451,-6.6443,-6.6639,-6.666,-6.6683,-6.6926,-6.6741,-6.6754,-6.6762,-6.7297,-6.7305,-6.7312,0,0,0,0,0,0,-6.6033,-6.6071,-6.6384,-6.624,-6.6279,-6.634,-6.6428,-6.6435,-6.6489,-6.656,-6.657,-6.6496,-6.6635,-6.6664,-6.6836,-6.6932,-6.676,-6.6772,-6.7289,-6.7299,-6.7308,-6.7411,0,0,0,0,0,0,-6.6021,-6.6068,-6.6145,-6.6242,-6.6287,-6.6534,-6.6434,-6.6443,-6.6513,-6.6505,-6.6605,-6.6616,-6.6633,-6.6816,-6.6849,-6.6947,-6.6783,-6.7281,-6.7293,-6.7305,-6.7399,-6.7423,-6.7443,0,0,0,0,0,-6.6006,-6.6164,-6.6149,-6.6187,-6.6385,-6.654,-6.6565,-6.6583,-6.6521,-6.6599,-6.6645,-6.6613,-6.6916,-6.6834,-6.6871,-6.6974,-6.7275,-6.729,-6.7304,-6.7389,-6.7418,-6.7443,0,0,0,0,0,0,-6.6073,-6.6177,-6.6161,-6.6356,-6.644,-6.6531,-6.663,-6.6613,-6.6714,-6.6702,-6.6718,-6.6741,-6.6917,-6.6962,-6.6869,-6.7174,-6.7086,-6.7109,-6.7138,-6.7166,-6.7188,-6.7174,-6.6794,0,0,0,0,0,-6.6111,-6.623,-6.6313,-6.6477,-6.652,-6.6568,-6.6636,-6.6643,-6.6729,-6.6764,-6.6822,-6.6907,-6.7021,-6.7096,-6.7205,-6.7405,-6.7427,-6.7495,-6.7517,-6.7534,-6.7554,-6.7666,-6.7697,-6.736,-6.736,-6.736,0,0,-6.619,-6.6261,-6.6335,-6.6492,-6.6558,-6.668,-6.6598,-6.673,-6.6821,-6.6783,-6.6951,-6.6996,-6.7091,-6.7279,-6.7364,-6.7322,-6.7652,-6.7553,-6.7567,-6.7577,-6.7684,-6.7716,-6.7745,-6.737,-6.7368,-6.7367,0,0,-6.6397,-6.6462,-6.6607,-6.6676,-6.6777,-6.6808,-6.6843,-6.6939,-6.6968,-6.7136,-6.7112,-6.7219,-6.7415,-6.7485,-6.7546,-6.7781,-6.7757,-6.7816,-6.7932,-6.804,-6.8067,-6.809,-6.8176,-6.8207,-6.7835,-6.7836,-6.7836,0,-6.6482,-6.6666,-6.6683,-6.6819,-6.6889,-6.6864,-6.7011,-6.7075,-6.7207,-6.7256,-6.7207,-6.7454,-6.7516,-6.7721,-6.7779,-6.7828,-6.7869,-6.7805,-6.8062,-6.8086,-6.8108,-6.819,-6.8222,-6.7842,-6.7841,-6.7841,-6.784,0,-6.6766,-6.6895,-6.6999,-6.713,-6.7212,-6.7352,-6.739,-6.7471,-6.747,-6.7506,-6.7678,-6.7752,-6.7877,-6.7925,-6.7925,-6.8131,-6.8102,-6.8058,-6.797,-6.8147,-6.8224,-6.8256,-6.7852,-6.7849,-6.7847,-6.7846,0,0,-6.7021,-6.7161,-6.7199,-6.7259,-6.737,-6.7469,-6.7608,-6.7733,-6.7802,-6.7894,-6.8011,-6.8179,-6.814,-6.8209,-6.8216,-6.8311,-6.8496,-6.8255,-6.8258,-6.8299,-6.8729,-6.8763,-6.8799,-6.848,-6.8486,-6.849,-6.8722,0,-6.7239,-6.7487,-6.7507,-6.773,-6.7849,-6.7828,-6.7949,-6.803,-6.8068,-6.8174,-6.8214,-6.8334,-6.8272,-6.8314,-6.8407,-6.8454,-6.8583,-6.8437,-6.8589,-6.8595,-6.8568,-6.8839,-6.8876,-6.909,-6.8752,-6.8757,-6.8761,0,-6.7526,-6.763,-6.7865,-6.7962,-6.8013,-6.8122,-6.8239,-6.834,-6.8432,-6.8453,-6.8532,-6.8527,-6.867,-6.8576,-6.8774,-6.8674,-6.8738,-6.877,-6.8779,-6.8795,-6.8689,-6.8864,-6.9159,-6.9192,-6.8808,-6.8804,-6.8801,0,-6.7691,-6.7888,-6.8056,-6.8107,-6.8224,-6.8302,-6.8353,-6.8439,-6.8513,-6.8614,-6.8663,-6.8778,-6.8842,-6.8931,-6.8957,-6.8886,-6.9155,-6.9063,-6.9176,-6.9176,-6.9235,-6.9231,-6.9546,-6.9273,-6.9272,-6.9272,-6.9271,0,-6.7933,-6.8079,-6.8132,-6.8235,-6.8397,-6.8419,-6.8579,-6.8626,-6.8703,-6.8814,-6.8801,-6.8905,-6.8933,-6.9043,-6.9064,-6.9225,-6.9253,-6.9274,-6.9278,-6.9277,-6.9274,-6.9319,-6.9305,-6.928,-6.9279,-6.9277,-6.9275,0,-6.8145,-6.8186,-6.8368,-6.8464,-6.8492,-6.8607,-6.8689,-6.8788,-6.8825,-6.8966,-6.9,-6.9057,-6.9185,-6.922,-6.9373,-6.9387,-6.9578,-6.9567,-6.9548,-6.9549,-6.9661,-6.9651,-7.0017,-7.0066,-6.976,-6.9762,-6.9765,0,-6.8298,-6.841,-6.8519,-6.8594,-6.865,-6.877,-6.8847,-6.8872,-6.8952,-6.9066,-6.9152,-6.9279,-6.9382,-6.9588,-6.9642,-6.9759,-6.9752,-6.9873,-6.977,-6.9765,-6.9757,-6.975,-6.9762,-6.9892,-6.9896,-6.9898,-6.99,0,-6.8565,-6.8581,-6.8692,-6.8813,-6.8905,-6.9,-6.909,-6.9152,-6.919,-6.9281,-6.9413,-6.9494,-6.9652,-6.9778,-6.9897,-6.9949,-6.9932,-6.9932,-6.9965,-6.9965,-6.9951,-6.9962,-6.9603,-6.9924,-6.9922,-6.992,-6.9919,-6.9918,-6.8753,-6.8853,-6.8947,-6.9072,-6.9144,-6.923,-6.9328,-6.9378,-6.949,-6.9622,-6.963,-6.9774,-6.9864,-7.0022,-7.0081,-7.0194,-7.0158,-7.0205,-7.0217,-7.0229,-7.0239,-6.9932,-7.0215,-7.0214,-7.0214,-7.0213,-7.0213,0,-6.9022,-6.9082,-6.9197,-6.9326,-6.9425,-6.9402,-6.9502,-6.9586,-6.9714,-6.98,-6.9903,-7.0056,-7.0179,-7.0244,-7.0367,-7.0444,-7.044,-7.0476,-7.0471,-7.0484,-7.0263,-7.0224,-7.0478,-7.0478,-7.0478,-7.0478,-7.0478,-7.0478,-6.9174,-6.9342,-6.9369,-6.9572,-6.963,-6.9774,-6.9833,-6.9912,-6.9981,-7.0154,-7.0258,-7.0299,-7.0377,-7.0506,-7.0618,-7.0634,-7.068,-7.0721,-7.0733,-7.0526,-7.0499,-7.0473,-7.0436,-7.0731,-7.0731,-7.0944,-7.0946,-7.0947]}]]